星链-34890(STARLINK-34890)

导读 | 豆包AI

STARLINK-34890是美国SpaceX星链互联网星座的一颗卫星,于2025年9月25日发射升空,作为星链网络部署计划的组成部分,承担低轨道卫星互联网通信服务任务,旨在为全球提供高速低延迟宽带接入,尤其覆盖偏远地区与移动场景,进一步扩充星链星座的服务容量与覆盖范围。

基本信息
目录编号:
65760
目录名称:
STARLINK-34890
国际标识:
2025-216AC
轨道中心:
EARTH
卫星名称:
星链-34890
卫星全名:
星链-34890(STARLINK-34890)
卫星状态:
在轨 (已飞行216 天)
发射日期:
2025-09-25 UTC
国别 :
美国 (US)
星等 :
--
轨道信息
数据来源 国际轨道数据
星历时间: 2026-04-29T12:52:14+0800
4小时前
查看轨道信息
半长轴: 6853.353km
偏心率: 0.0002081
轨道倾角: 53.161°
近地点辐角 84.792°
升交点赤经 97.813°
平近点角 275.331°
近地点: 473.789km
远地点: 476.643km
周期: 94.105分钟
每日圈数: 15.302
详细信息
固有亮度:
5
最大亮度:
2.5
卫星平台:
Starlink V1.0
覆盖范围:
全球
运营商:
太空探索技术公司
运营商所在国:
美国
制造商(研发单位):
太空探索技术公司
制造商所在国:
美国
使用方式:
暂无
卫星简介
Starlink 计划是 SpaceX 推出的全球卫星互联网项目,通过发射低轨道卫星,为全球尤其是偏远地区提供高速、低延迟的互联网服务。自 2019 年起,Starlink 已部署数千颗卫星,旨在缩小全球数字鸿沟,推动互联网普及。该项目还为军事、航空等行业提供通信支持,带来广泛经济效益。
2D轨道图
3D轨道图
轨道高度分析图
轨道倾角分析图
轨道综合分析图
查看轨道综合分析图